Theta_e
327 328 328 329 327 326 329 330 330 332 331 330 330 329 328 328 327 327 326 327 323 322 322 321 323 321 313 317 317 316 315 314 314 313 312 312 313 314
329 329 329 329 328 330 329 330 330 330 330 330 329 328 328 329 327 327 326 324 324 322 322 321 321 319 316 316 314 313 313 313 313 313 314 313 313 312
329 330 329 329 329 328 330 330 329 329 330 329 329 328 328 328 327 325 324 324 323 321 318 316 317 315 313 313 313 313 313 313 313 313 313 313 312 312
329 329 329 328 327 329 329 329 329 329 329 328 328 328 328 327 326 324 323 322 321 316 315 315 312 313 313 313 312 312 312 312 312 311 311 311 311 310
327 328 328 328 328 328 328 328 329 329 329 328 327 327 327 325 324 323 321 319 316 312 310 308 307 308 308 309 310 309 310 312 313 313 312 309 308 306
328 328 328 328 328 328 328 328 328 328 328 327 327 325 325 325 324 324 324 323 319 317 316 317 317 317 316 315 315 315 315 312 308 306 304 302 300 298
328 328 328 328 327 328 328 328 328 327 328 327 326 326 326 325 326 324 324 321 319 318 320 320 320 319 318 315 309 305 302 301 301 300 300 301 301 301
328 328 327 328 327 327 327 328 328 327 327 327 326 325 325 326 325 323 321 321 317 320 320 316 312 309 306 303 302 302 301 300 300 301 302 302 301 301
327 327 327 327 326 327 327 327 326 326 327 327 327 327 326 327 326 320 318 315 319 321 316 312 309 307 305 304 304 304 301 299 299 300 299 298 298 300
327 327 327 326 326 326 327 327 326 325 325 325 326 326 326 327 325 317 316 318 320 321 322 313 310 308 306 305 302 298 295 295 296 301 300 299 298 298
328 327 327 327 326 325 326 327 327 327 327 327 326 322 321 322 321 318 320 320 322 315 317 314 311 309 304 302 299 296 295 297 301 301 300 297 292 292
327 327 326 326 325 326 327 325 321 324 327 327 326 324 327 323 320 320 321 322 318 314 314 313 307 309 309 304 301 295 293 296 299 299 293 291 292 293
326 325 324 325 326 324 326 321 321 324 326 326 326 325 326 326 326 323 325 324 314 314 312 308 304 302 300 301 303 296 292 296 296 291 290 291 292 293
327 326 325 325 325 326 326 320 316 315 315 320 316 312 312 313 313 314 314 315 315 313 309 306 301 298 298 298 300 292 291 296 290 290 290 290 290 291
326 326 326 326 326 326 325 320 317 314 316 317 317 316 316 315 315 313 310 309 307 304 302 300 299 297 295 295 297 292 293 292 292 292 292 290 289 290
322 320 320 321 321 320 319 318 318 317 317 318 319 319 314 312 310 309 308 307 307 302 302 301 298 295 294 292 291 292 291 293 292 292 291 291 288 289
320 318 316 318 318 318 318 318 317 316 317 318 319 317 311 309 308 308 308 307 304 301 300 298 295 293 292 293 294 290 291 293 292 291 290 289 289 289
317 318 318 316 316 316 316 316 315 315 316 318 317 314 311 308 306 306 306 306 303 300 298 296 294 293 292 292 292 289 290 291 290 289 288 289 288 288
319 318 318 319 318 317 316 317 317 315 314 317 317 316 312 308 305 305 304 302 300 299 297 295 292 291 292 293 292 290 287 288 287 287 287 287 287 287
314 316 318 316 316 318 318 316 316 311 310 315 316 314 310 307 304 303 303 302 299 297 296 295 293 290 292 292 293 288 285 285 287 287 287 287 286 286
310 311 312 314 315 314 315 315 315 312 311 312 314 312 308 305 303 303 302 301 298 297 296 295 293 290 289 289 288 287 285 285 285 286 286 286 286 286
317 314 310 310 312 314 312 311 309 310 310 312 313 309 306 305 304 303 301 299 298 297 296 295 292 289 288 286 287 285 285 284 285 285 283 283 285 285
319 319 318 314 309 311 313 310 307 306 308 311 311 307 305 303 303 301 299 298 297 297 295 292 288 287 286 284 285 284 284 283 283 283 283 282 283 281
Wind_Speed
5 7 9 10 19 13 22 24 13 4 2 13 7 33 35 32 29 25 23 20 19 16 13 14 13 14 13 11 9 7 5 5 7 7 8 10 11 13
7 7 8 15 20 22 27 23 20 15 3 7 21 29 32 23 24 22 20 17 13 12 11 12 13 13 12 10 7 5 5 6 7 10 11 13 14 16
10 10 16 18 22 20 24 24 23 24 15 20 26 28 27 25 22 19 17 13 11 10 11 9 10 10 7 5 4 4 7 8 10 12 14 15 17 18
11 11 15 17 20 19 20 21 25 27 24 22 21 23 29 28 23 19 15 11 9 9 9 9 6 6 5 3 4 6 7 10 12 13 15 14 15 16
11 15 18 19 20 21 20 24 25 27 28 20 15 21 28 26 20 15 12 12 10 9 7 5 3 1 2 4 7 8 11 11 12 12 12 12 12 13
12 15 18 21 23 23 23 22 25 27 29 25 22 23 23 19 17 16 13 10 8 7 5 2 1 3 4 5 5 5 5 9 11 11 11 13 14 16
14 14 15 19 21 23 26 24 27 26 24 21 18 18 16 18 15 12 11 9 6 6 5 3 3 6 9 12 15 14 14 14 14 14 15 15 15 16
16 15 15 15 18 22 21 23 24 27 23 18 14 16 15 16 14 14 14 8 4 7 14 16 16 21 20 18 16 14 14 13 13 11 11 13 16 21
17 19 21 18 18 18 20 22 18 15 19 22 22 15 14 17 16 14 14 11 7 9 19 18 19 22 18 16 11 11 12 11 11 13 15 17 18 17
19 23 25 26 25 23 21 18 14 10 10 10 5 7 9 16 16 13 14 13 11 8 12 7 14 18 15 14 11 11 14 16 15 11 12 17 21 22
20 21 23 20 18 16 15 12 7 7 9 9 7 6 8 14 15 13 14 15 5 5 7 9 10 14 12 12 12 14 17 12 7 10 17 24 26 25
18 20 22 20 20 13 8 2 8 10 11 13 11 7 7 14 13 12 11 16 10 4 7 6 9 9 5 8 9 14 15 10 11 15 20 21 25 25
19 19 18 17 18 13 3 4 10 13 12 15 16 14 12 13 12 11 11 11 14 7 11 8 7 7 6 3 2 13 15 12 15 21 22 22 21 22
18 17 16 17 15 9 7 9 5 11 15 16 17 16 16 16 15 15 15 14 12 15 14 7 9 8 5 3 3 10 12 7 21 21 24 24 25 25
12 14 16 17 16 14 13 12 8 12 14 17 18 18 17 19 21 23 23 22 21 21 16 14 12 9 7 5 3 9 9 5 18 20 20 23 24 24
13 14 14 15 16 15 14 13 14 14 15 16 18 19 22 24 26 26 25 23 21 20 15 13 10 7 9 10 9 9 10 7 16 18 18 17 21 20
14 15 16 17 17 16 16 17 16 15 14 16 19 25 27 27 24 23 23 21 19 18 16 12 8 7 8 4 4 11 8 8 11 14 14 17 16 16
19 18 19 20 21 21 20 19 17 17 17 20 25 27 29 28 26 25 22 22 25 20 16 10 7 7 5 3 3 10 9 10 13 13 15 14 13 15
22 22 22 25 26 26 24 23 22 19 17 21 25 27 29 30 31 24 21 24 21 17 12 8 6 6 4 1 3 10 12 11 13 12 13 14 13 12
25 24 27 27 29 30 29 28 25 22 23 24 27 29 30 32 29 26 28 27 22 17 13 6 3 5 2 3 2 3 11 12 11 12 14 13 13 2
31 30 28 28 29 30 32 32 31 28 26 27 29 30 31 32 27 29 28 27 25 20 12 7 3 3 4 5 3 3 8 8 9 11 13 11 14 6
31 33 34 32 29 28 30 31 31 29 26 27 31 33 33 34 32 32 32 30 23 18 14 9 5 4 4 4 3 3 6 11 5 5 11 9 8 10
32 33 33 34 35 33 29 30 31 33 30 30 33 34 34 33 32 32 24 21 18 12 11 10 6 5 7 5 3 4 7 11 10 10 12 8 2 11
Wind_Direction
186 183 201 189 166 168 161 145 137 144 119 111 104 135 145 149 149 152 151 162 165 165 172 173 178 185 180 190 203 216 223 245 263 280 285 292 292 287
164 174 182 181 171 160 161 150 142 133 110 109 122 135 156 136 140 146 149 155 155 165 170 178 187 191 188 192 208 231 259 278 289 294 300 304 304 304
146 160 136 165 154 152 152 143 129 120 107 114 129 146 146 142 141 142 143 152 155 165 168 175 184 184 179 188 234 268 282 296 307 311 311 312 311 309
137 135 133 149 151 148 145 146 134 129 119 122 130 143 147 146 142 145 145 154 148 142 162 174 172 178 193 219 264 279 295 308 315 315 310 307 307 304
134 143 145 152 140 141 145 132 133 136 134 120 112 120 133 142 146 144 143 136 135 143 146 139 162 173 254 270 280 297 310 313 314 311 317 323 334 341
128 142 146 144 142 147 144 141 135 130 134 125 118 114 137 152 158 151 148 138 138 147 142 150 26 284 274 281 315 341 19 51 49 41 34 21 13 10
122 135 148 143 149 154 150 147 150 140 139 129 131 135 148 166 170 167 146 145 147 154 134 64 51 74 83 88 90 83 72 60 48 36 27 20 18 15
129 129 144 138 145 148 154 154 152 151 144 140 151 153 162 174 160 152 158 162 155 126 102 91 103 99 95 92 86 71 56 43 37 33 27 15 359 352
137 138 144 147 145 138 137 138 145 151 159 157 162 167 167 172 168 163 168 162 128 121 114 101 112 104 102 92 81 61 49 42 28 15 7 1 356 354
146 150 140 138 136 131 137 142 149 160 177 185 209 181 176 183 181 172 162 144 125 122 139 122 141 115 102 98 85 48 29 19 13 12 8 359 352 341
154 152 148 146 146 144 144 149 167 192 185 183 170 152 150 166 175 171 164 150 113 142 150 132 153 154 122 99 61 29 22 25 33 14 1 352 347 352
144 150 153 148 145 153 156 171 159 155 165 181 188 180 169 180 184 199 194 169 140 123 161 140 142 159 156 82 48 23 22 25 10 1 356 4 0 359
155 157 162 153 156 163 181 143 139 140 134 145 154 155 145 150 168 181 178 190 167 123 161 153 117 94 98 129 100 14 9 11 12 3 10 9 4 4
162 172 178 176 179 194 202 179 160 161 153 149 152 149 149 150 146 148 150 147 126 122 128 127 120 111 103 79 52 357 19 30 7 9 6 3 5 0
185 183 186 196 205 217 212 198 206 180 166 164 167 161 155 149 141 134 128 122 113 110 109 104 98 88 82 100 99 13 10 353 3 2 360 4 0 354
187 183 183 185 189 193 198 205 200 196 189 182 175 165 160 155 151 146 138 134 124 115 114 103 95 85 102 99 63 29 13 359 355 358 354 354 1 2
197 189 189 191 193 197 201 198 197 195 193 186 174 165 163 163 157 157 153 149 140 135 122 111 100 94 100 122 53 22 7 0 352 350 353 356 359 358
200 201 202 204 204 204 203 201 201 202 198 191 181 176 172 172 164 160 163 158 147 138 130 126 137 137 128 106 25 9 4 357 349 351 5 357 354 4
217 214 217 216 216 216 213 210 211 210 208 199 191 186 182 180 171 166 159 151 135 137 130 129 117 118 148 183 203 356 6 353 349 358 4 0 345 349
221 224 224 226 226 225 223 221 217 215 211 205 198 192 187 180 174 168 165 158 151 147 130 135 99 84 157 119 131 19 2 0 356 358 352 345 346 15
227 230 234 237 235 232 229 227 224 222 218 209 202 196 190 183 173 171 168 166 160 151 154 174 184 94 98 93 72 16 18 16 11 8 348 341 349 338
235 238 240 240 242 241 236 232 228 225 223 215 206 199 194 190 182 176 171 166 167 161 158 177 193 147 113 85 88 35 357 26 39 18 8 12 4 342
238 240 243 244 243 243 242 232 225 222 221 214 205 200 193 186 184 175 166 162 149 150 166 170 163 129 108 93 116 56 22 19 18 9 16 19 325 350